Location: Unnamed
(42.1164°N, 2.7652°E)
Time: 20:52:39
(UTC+02:00)

ISS - Pass Details

Date: 14 May 2021
Orbit: 417 x 422 km, 51.6° (Epoch: 14 June)

Event Time Altitude Azimuth Distance (km) Brightness Sun altitude
Exits shadow 01:17:34 13° 29° (NNE) 1,334 -0.6 -28.9°
Drops below altitude 10° 01:18:09 10° 37° (NE) 1,507 -0.4 -28.9°
Sets 01:20:37 0° 54° (NE) 2,374 0.4 -29.0°
